GFSFLT2_con_3kmhel_306.txt.gz
Helicity
13 -2 11 25 36 38 43 49 43 58 72 52 51 45 50 55 58 62 73 77 70 62 61 63 52 51 88 127 146 139 48 58
15 -1 -26 -14 5 37 63 52 47 80 73 66 58 48 53 53 62 76 87 88 88 86 84 88 90 84 69 74 118 153 115 71
15 -5 -32 -20 10 38 54 48 74 82 67 71 53 18 -4 24 64 88 101 95 97 93 102 103 110 109 107 97 117 83 105 126
7 -12 -22 -3 14 47 37 41 51 41 41 50 38 31 29 59 76 91 73 53 67 71 80 82 81 71 72 79 68 90 95 113
-1 -8 -6 8 27 30 32 31 36 33 61 63 50 44 38 39 44 46 49 37 60 51 53 55 58 59 61 62 71 70 63 87
14 4 13 19 25 32 29 29 25 41 57 67 46 33 37 46 53 53 58 56 47 43 44 39 42 46 49 59 68 70 67 57
18 20 20 18 44 19 29 18 36 45 63 62 61 48 46 55 65 64 59 51 46 39 32 33 48 68 77 70 71 76 72 62
39 45 33 40 35 25 10 25 39 56 64 64 62 54 61 66 67 59 57 53 44 32 25 35 46 58 67 72 77 84 80 84
64 65 53 69 42 21 22 30 53 64 63 67 56 60 63 69 64 57 48 48 23 34 43 53 54 55 59 71 77 74 80 80
72 85 74 67 43 25 31 44 57 62 66 59 63 58 56 59 59 56 57 38 39 45 51 55 58 63 62 80 87 105 96 86
123 95 79 68 55 49 49 52 68 71 66 64 57 60 54 62 65 67 56 39 43 52 57 61 61 65 66 95 116 137 103 104
145 104 93 84 65 54 52 52 64 70 59 69 73 67 56 62 67 61 37 42 48 53 55 65 63 62 70 67 122 130 101 84
135 117 98 88 64 32 25 29 49 59 75 76 67 60 52 53 60 51 38 44 47 41 49 54 60 60 65 67 98 119 78 79
154 146 131 85 46 22 29 57 62 64 83 74 52 47 43 43 54 47 42 54 39 46 46 51 56 58 52 53 2 109 80 79
161 164 123 87 61 46 61 74 72 76 83 86 71 47 40 46 45 57 55 51 47 44 56 50 69 61 52 57 8 48 78 102
179 160 124 92 64 73 60 47 53 59 95 98 87 60 50 44 42 55 57 63 44 56 64 93 62 63 53 54 47 23 8 39
177 160 126 84 77 81 66 64 63 91 100 86 82 76 61 48 53 62 60 73 55 64 80 65 78 72 50 -15 10 16 -7 -10
180 147 98 82 87 81 75 78 82 89 91 102 95 87 83 61 60 74 75 81 71 83 99 84 55 52 36 27 32 -10 7 -24
151 109 94 83 86 80 69 83 75 71 89 115 100 97 84 74 78 79 89 94 89 98 87 61 62 69 43 57 61 68 63 79
114 99 101 84 74 69 80 78 73 78 94 107 108 97 96 83 86 86 83 90 85 92 95 93 89 41 94 112 111 130 144 136

GFSFLT2_con_3kmhel_309.txt.gz
Helicity
40 27 26 26 35 32 52 40 36 53 58 60 54 39 33 28 28 35 53 61 67 80 76 73 70 67 71 98 127 152 150 76
31 14 6 11 21 44 46 40 65 77 73 68 58 33 28 33 37 58 71 82 85 96 100 99 97 101 90 84 99 117 118 132
27 15 7 6 18 29 41 61 84 77 68 65 29 19 18 33 51 69 79 84 93 97 96 88 84 72 76 83 91 77 107 128
26 14 8 4 12 24 35 50 54 53 48 36 25 27 27 38 54 71 76 82 84 86 81 75 65 66 61 61 68 68 66 97
26 19 11 8 15 20 27 32 39 48 48 35 33 25 31 48 49 53 51 59 50 51 50 54 62 63 64 66 72 75 65 57
33 32 25 17 16 28 27 26 39 39 32 31 20 18 37 56 54 48 42 39 43 42 42 49 44 49 53 58 72 79 77 72
46 43 34 24 33 29 29 39 44 35 22 32 29 36 50 49 45 43 43 39 39 46 42 33 38 47 56 58 60 76 86 90
60 53 44 40 49 41 40 45 43 26 25 35 48 51 54 48 43 40 37 38 48 33 24 33 44 47 50 60 69 78 80 87
71 72 69 62 60 54 49 54 40 27 27 45 61 65 54 41 40 38 37 46 20 24 31 38 41 46 49 64 71 79 83 86
80 86 93 80 76 60 59 66 44 28 34 45 59 61 54 38 38 41 48 32 28 31 44 51 50 61 53 65 82 77 74 78
96 106 109 95 87 79 72 65 42 32 45 54 60 55 47 38 44 43 49 35 36 41 48 48 59 57 60 66 70 65 63 68
114 119 116 99 87 88 78 56 36 44 59 69 73 63 43 40 41 48 38 41 52 52 46 43 44 55 61 68 75 58 56 71
125 136 125 95 82 68 52 41 38 65 70 81 85 64 42 31 40 46 41 53 54 39 43 32 47 53 62 78 88 78 83 114
154 150 138 111 85 65 50 49 58 64 75 96 77 55 44 34 40 45 42 52 37 42 32 43 50 65 70 62 71 107 96 150
158 153 143 112 79 68 65 64 66 63 78 80 72 57 41 36 33 39 43 47 50 35 33 34 58 59 64 69 52 77 64 125
160 156 139 109 83 74 66 62 61 61 70 78 71 52 43 41 29 33 37 51 46 40 47 49 57 51 40 50 41 13 31 94
161 169 137 106 84 67 63 79 47 60 86 83 69 57 46 39 35 43 47 52 49 44 43 39 50 41 30 27 22 18 18 28
160 160 125 92 73 74 72 51 51 84 87 75 72 66 60 42 41 50 54 54 51 61 51 40 35 41 43 37 34 24 41 32
162 135 109 77 78 67 57 44 78 88 69 76 65 72 60 47 47 56 61 57 67 59 40 39 51 51 45 52 47 42 25 30
154 120 84 80 66 58 49 68 83 84 74 77 82 74 60 50 62 61 59 56 48 39 57 59 61 66 66 76 71 28 58 68

GFSFLT2_con_3kmhel_312.txt.gz
Helicity
48 42 37 44 46 61 54 43 62 64 63 60 51 38 31 16 13 20 28 41 52 67 72 75 72 72 87 113 118 135 148 115
41 36 36 29 30 49 40 48 67 63 65 56 34 -16 20 21 -2 43 34 47 59 70 80 83 76 75 61 68 109 125 86 132
39 36 34 25 24 39 15 49 42 22 24 48 -5 25 13 18 38 30 32 46 60 63 72 77 75 45 59 57 63 73 119 119
36 29 30 16 16 14 25 28 40 41 37 27 17 18 16 -5 6 19 23 52 52 66 55 52 40 85 90 81 100 99 85 103
33 31 18 1 24 5 21 25 25 37 30 22 12 3 12 6 19 33 39 47 54 59 67 77 93 78 83 85 94 88 87 76
35 31 24 16 4 17 17 23 31 34 46 29 7 2 6 13 26 32 34 41 43 49 61 76 63 68 71 73 72 75 82 86
35 29 30 25 7 22 24 22 43 40 32 38 8 -3 10 17 36 42 46 45 43 59 54 51 55 57 61 63 74 81 79 83
42 39 41 36 30 28 25 40 40 35 37 42 6 -3 20 32 44 47 44 46 64 48 43 46 52 54 54 80 89 82 78 82
50 57 54 45 35 34 39 56 34 48 43 36 20 17 29 37 42 44 50 70 47 30 33 40 45 51 71 68 67 75 83 75
65 70 68 59 55 51 54 65 51 53 49 41 44 32 42 36 44 50 72 54 40 34 33 42 42 50 56 63 68 70 80 83
84 79 72 73 77 60 62 72 44 59 54 52 52 43 53 41 43 56 71 44 51 42 50 49 57 58 53 56 70 74 75 85
97 84 94 81 54 61 64 61 66 68 60 63 46 67 60 52 57 61 59 48 51 53 48 53 51 49 47 56 64 64 69 72
99 101 104 76 71 64 72 73 77 70 72 64 61 75 73 59 59 51 56 53 46 43 52 43 49 45 53 46 63 57 58 73
113 118 118 93 81 82 74 61 62 76 60 67 74 67 62 52 50 52 53 52 44 48 43 45 46 50 87 66 81 120 108 83
121 133 132 104 80 85 66 55 61 78 75 73 79 67 55 57 50 47 47 47 57 59 50 39 59 53 63 101 92 127 197 88
136 147 124 113 88 81 61 66 53 67 55 70 69 69 55 54 47 41 46 67 68 79 74 62 56 48 49 65 57 59 71 87
149 139 124 113 93 63 64 62 50 47 62 65 74 61 51 47 45 41 56 78 71 68 60 51 60 61 47 48 51 57 27 -14
140 123 125 101 76 75 61 43 32 46 68 79 71 63 47 42 43 55 64 66 68 70 58 50 55 58 61 51 51 72 56 26
125 121 119 89 74 72 44 29 36 59 67 67 51 56 49 46 47 61 67 71 81 68 63 58 59 60 47 43 28 38 52 62
121 114 98 79 77 51 35 38 57 66 63 58 62 59 55 56 68 67 59 77 75 54 58 32 42 53 37 49 35 10 23 51

GFSFLT2_con_3kmhel_315.txt.gz
Helicity
84 55 46 38 49 57 54 53 75 72 73 65 46 19 6 -3 19 14 34 27 27 33 43 45 49 50 60 78 90 112 116 106
70 61 58 43 57 68 48 62 58 49 41 40 17 -14 11 2 -9 68 24 19 23 34 37 42 48 41 29 36 68 103 90 100
56 55 56 47 44 68 24 31 25 -0 -0 40 -2 31 24 41 37 35 7 5 12 10 23 32 41 23 -15 23 58 60 103 111
54 51 55 33 35 28 25 25 33 39 42 39 25 35 19 21 -7 2 -29 -1 -23 -3 -8 -0 -2 78 71 51 70 102 89 97
60 53 42 27 47 18 41 29 45 40 46 47 27 22 35 27 26 30 27 18 26 44 48 62 85 59 70 82 85 83 88 95
54 57 41 35 4 28 16 29 44 39 64 42 32 24 31 39 33 31 22 25 32 40 53 57 44 54 65 71 75 83 91 97
59 44 34 26 2 25 25 23 45 38 38 63 41 29 36 37 33 23 27 31 36 51 44 46 50 55 63 73 75 79 85 93
59 46 33 27 20 19 10 38 36 36 48 78 43 36 44 35 31 30 32 45 65 50 44 48 53 61 75 80 96 90 85 88
56 52 37 28 9 36 20 48 29 47 53 59 61 47 48 35 23 25 38 67 49 40 46 49 61 72 82 84 90 95 98 92
52 57 58 41 44 25 35 56 47 49 55 57 84 53 52 36 29 34 59 48 44 35 43 55 62 65 72 80 93 99 99 98
63 58 57 54 56 26 36 56 25 44 57 71 105 51 62 40 29 44 56 46 39 44 47 57 70 75 74 74 82 93 90 91
76 58 78 49 16 42 53 58 72 90 79 93 80 63 47 40 33 53 51 50 57 59 70 59 64 60 62 64 62 72 73 75
72 84 82 50 58 59 69 69 76 80 87 88 82 64 51 48 57 55 51 55 66 61 56 57 56 65 61 54 60 67 58 57
88 106 95 83 77 74 70 58 52 69 74 94 76 79 64 53 57 47 42 58 59 65 70 63 49 47 59 57 25 142 75 46
90 121 116 114 66 84 77 41 70 95 89 65 90 70 69 57 50 54 48 70 80 80 66 55 55 53 45 63 45 103 193 169
134 129 122 125 90 79 61 65 78 80 60 65 64 69 60 56 56 60 60 84 81 86 90 82 69 57 54 58 52 54 101 149
143 117 127 107 88 69 65 82 72 53 57 50 55 59 59 55 60 65 62 83 82 90 80 66 66 62 47 55 64 60 45 73
114 107 130 97 78 79 77 65 39 48 57 57 67 61 53 49 64 62 73 79 84 96 68 57 65 72 75 67 69 83 62 69
106 120 129 96 82 85 72 47 27 40 62 69 58 65 53 48 54 66 70 75 77 79 68 69 76 95 94 100 86 83 74 66
115 124 113 98 89 75 57 44 46 55 64 63 65 62 56 58 68 68 61 74 72 82 94 87 79 83 84 66 75 64 69 70

GFSFLT2_con_3kmhel_318.txt.gz
Helicity
79 67 66 47 57 54 53 61 63 57 56 52 42 22 9 19 44 46 60 49 45 45 42 36 39 44 51 63 86 105 89 85
111 83 8 16 32 53 50 46 38 29 35 42 48 34 38 30 53 65 38 34 34 35 34 39 46 42 21 14 57 121 115 136
91 80 71 54 62 49 48 38 27 15 -5 39 46 51 48 52 38 24 18 14 38 14 28 39 51 58 80 63 71 128 158 133
64 67 56 36 75 36 11 15 36 32 69 87 46 40 30 46 50 23 43 33 23 36 36 36 80 67 58 81 75 91 81 111
103 66 58 50 53 27 60 54 83 64 104 60 61 38 41 45 45 49 48 41 50 50 47 50 42 30 42 53 63 73 85 93
101 89 49 44 20 58 38 65 59 78 68 71 77 44 42 45 48 50 55 56 54 56 50 38 26 30 30 44 53 71 88 86
126 84 57 45 22 47 34 22 62 52 36 105 70 45 36 45 48 50 58 60 62 55 43 32 32 38 44 55 68 85 79 79
118 107 70 47 30 30 -0 38 71 27 70 97 74 75 47 48 48 53 61 65 63 37 30 25 34 41 62 70 70 72 80 91
95 108 64 50 38 44 22 60 53 42 81 95 92 108 47 56 48 53 62 67 49 46 28 36 42 50 66 77 83 91 96 105
67 76 82 52 62 10 32 47 43 16 71 64 136 130 53 64 54 55 62 56 47 41 41 49 59 65 73 77 89 100 110 114
110 94 93 81 42 -0 15 71 73 64 101 99 184 102 77 70 60 56 58 56 54 57 80 88 77 73 76 73 73 78 86 89
140 88 115 59 24 64 72 69 87 119 123 139 138 97 81 83 68 66 63 59 60 88 76 52 56 54 62 75 73 84 84 91
130 118 106 65 64 86 79 66 77 90 98 87 126 115 116 102 86 75 69 64 68 77 69 60 58 53 47 54 53 112 143 153
135 159 122 110 83 55 96 84 70 87 126 128 108 156 113 105 104 92 81 75 65 80 83 82 69 60 49 43 11 141 161 128
132 165 137 126 95 94 112 85 99 113 103 114 114 95 103 102 97 95 84 78 74 91 89 92 89 80 59 69 41 90 103 167
208 163 151 135 118 90 82 90 90 92 103 104 81 83 92 97 87 92 108 101 93 110 125 125 109 79 80 78 72 77 87 142
175 113 135 118 97 100 85 85 85 87 84 80 75 74 83 77 88 105 91 105 99 114 116 120 107 92 76 75 78 72 65 93
98 82 155 130 106 101 88 80 78 78 72 80 91 78 65 62 74 79 90 94 113 126 113 120 122 110 105 87 88 108 93 94
76 120 158 144 117 92 90 84 69 70 81 89 82 81 70 73 77 83 96 119 104 101 102 111 98 110 103 105 113 112 90 84
120 140 150 128 99 87 86 73 70 77 88 90 84 79 82 90 87 98 118 105 116 93 113 97 87 100 77 89 102 101 111 95